FW8535 Weather Reports


Display with metric or nautical units.
time (UTC)temp
F
wind
direction
speed
MPH
gust
MPH
rain 1hr
in
rain 24hr
in
rain mn
in
humidity
%
barometer
mb
20260509214100 65 344 3.0 13.0 0.00 0.00 0.00 33 1015.4
20260509213559 66 339 5.0 13.0 0.00 0.00 0.00 33 1015.6
20260509213103 66 318 4.0 12.0 0.00 0.00 0.00 34 1015.6
20260509212559 65 308 4.0 10.0 0.00 0.00 0.00 34 1015.6
20260509212059 65 24 4.0 11.0 0.00 0.00 0.00 34 1015.6
20260509211559 66 331 7.0 15.0 0.00 0.00 0.00 34 1015.6
20260509211058 66 294 5.0 12.0 0.00 0.00 0.00 35 1015.4
20260509210558 66 330 4.0 11.0 0.00 0.00 0.00 35 1015.5
20260509210107 65 316 4.0 12.0 0.00 0.00 0.00 36 1015.6
20260509205600 66 271 7.0 15.0 0.00 0.00 0.00 34 1015.6
20260509205057 66 310 6.0 15.0 0.00 0.00 0.00 36 1015.6
20260509204055 65 360 4.0 12.0 0.00 0.00 0.00 36 1015.6
20260509203558 65 311 4.0 13.0 0.00 0.00 0.00 38 1015.6
20260509203102 64 279 5.0 13.0 0.00 0.00 0.00 38 1015.5
20260509202552 63 278 4.0 13.0 0.00 0.00 0.00 39 1015.6
20260509202051 63 5 5.0 12.0 0.00 0.00 0.00 40 1015.6
20260509201551 61 24 2.0 10.0 0.00 0.00 0.00 43 1015.8
20260509201052 61 287 5.0 10.0 0.00 0.00 0.00 41 1015.7
20260509200551 62 296 4.0 13.0 0.00 0.00 0.00 40 1015.6
20260509200051 63 321 6.0 13.0 0.00 0.00 0.00 39 1015.8
20260509195550 62 13 4.0 12.0 0.00 0.00 0.00 40 1015.8
20260509195048 61 329 4.0 12.0 0.00 0.00 0.00 41 1015.8
20260509194053 60 355 5.0 11.0 0.00 0.00 0.00 42 1015.7
20260509193553 60 306 5.0 12.0 0.00 0.00 0.00 40 1015.7
20260509193057 61 343 5.0 12.0 0.00 0.00 0.00 40 1015.7
20260509192555 61 288 4.0 12.0 0.00 0.00 0.00 40 1015.7
20260509192053 61 343 3.0 12.0 0.00 0.00 0.00 41 1015.7
20260509191603 60 22 5.0 11.0 0.00 0.00 0.00 40 1015.5
20260509191055 61 33 4.0 12.0 0.00 0.00 0.00 40 1015.7
20260509190553 60 9 5.0 11.0 0.00 0.00 0.00 41 1015.6
20260509190054 60 51 3.0 9.0 0.00 0.00 0.00 41 1015.6
20260509185551 61 355 3.0 10.0 0.00 0.00 0.00 40 1015.8
20260509185050 61 360 4.0 10.0 0.00 0.00 0.00 40 1015.8
20260509184651 60 5 3.0 12.0 0.00 0.00 0.00 41 1015.7
20260509184045 60 315 3.0 12.0 0.00 0.00 0.00 40 1015.7
20260509183546 61 350 7.0 12.0 0.00 0.00 0.00 39 1015.7
20260509183052 61 5 4.0 13.0 0.00 0.00 0.00 39 1015.7
20260509182547 61 9 7.0 13.0 0.00 0.00 0.00 40 1015.6
20260509182044 60 28 4.0 11.0 0.00 0.00 0.00 40 1015.6
20260509181543 60 346 4.0 12.0 0.00 0.00 0.00 40 1015.6
20260509181043 60 17 6.0 12.0 0.00 0.00 0.00 40 1015.7
20260509180543 60 350 3.0 8.0 0.00 0.00 0.00 42 1015.5
20260509180042 59 10 4.0 12.0 0.00 0.00 0.00 41 1015.6
20260509175542 60 261 5.0 13.0 0.00 0.00 0.00 40 1015.7
20260509175043 60 28 4.0 14.0 0.00 0.00 0.00 41 1015.6
20260509174045 60 321 3.0 11.0 0.00 0.00 0.00 41 1015.6
20260509173541 59 28 4.0 11.0 0.00 0.00 0.00 41 1015.5
20260509173048 59 294 3.0 11.0 0.00 0.00 0.00 41 1015.6
20260509172543 58 360 6.0 11.0 0.00 0.00 0.00 42 1015.5
20260509172038 58 276 4.0 12.0 0.00 0.00 0.00 43 1015.3
20260509171538 58 338 3.0 11.0 0.00 0.00 0.00 42 1015.4
20260509171036 57 23 4.0 14.0 0.00 0.00 0.00 44 1015.2
20260509170537 57 51 6.0 14.0 0.00 0.00 0.00 42 1015.4
20260509170037 57 24 6.0 12.0 0.00 0.00 0.00 43 1015.5
20260509165536 57 37 4.0 11.0 0.00 0.00 0.00 42 1015.4
20260509165040 57 15 4.0 9.0 0.00 0.00 0.00 43 1015.5
20260509164035 57 342 4.0 10.0 0.00 0.00 0.00 43 1015.5
20260509163533 56 327 3.0 12.0 0.00 0.00 0.00 43 1015.3
20260509163039 56 55 5.0 12.0 0.00 0.00 0.00 43 1015.4
20260509162531 56 62 5.0 12.0 0.00 0.00 0.00 43 1015.3
20260509162030 56 57 4.0 12.0 0.00 0.00 0.00 43 1015.3
20260509161529 56 11 4.0 10.0 0.00 0.00 0.00 44 1015.2
20260509161032 55 29 3.0 9.0 0.00 0.00 0.00 46 1015.3
20260509160526 54 355 4.0 9.0 0.00 0.00 0.00 47 1015.3
20260509160026 54 355 2.0 12.0 0.00 0.00 0.00 47 1015.3
20260509155525 54 60 7.0 12.0 0.00 0.00 0.00 47 1015.3
20260509155023 54 24 3.0 9.0 0.00 0.00 0.00 48 1015.4
20260509154027 54 34 5.0 10.0 0.00 0.00 0.00 48 1015.3
20260509153530 54 34 5.0 10.0 0.00 0.00 0.00 48 1015.1
20260509153034 53 338 4.0 10.0 0.00 0.00 0.00 49 1015.1
20260509152524 53 11 4.0 9.0 0.00 0.00 0.00 50 1015.1
20260509152024 53 22 4.0 14.0 0.00 0.00 0.00 49 1015.1
20260509151523 52 292 3.0 14.0 0.00 0.00 0.00 51 1015.2
20260509151021 52 338 3.0 6.0 0.00 0.00 0.00 55 1015.1
20260509150523 52 31 2.0 6.0 0.00 0.00 0.00 54 1015.1
20260509150021 52 10 0.0 5.0 0.00 0.00 0.00 56 1015.1
20260509145520 51 63 0.0 4.0 0.00 0.00 0.00 59 1015.2
20260509145019 51 285 0.0 3.0 0.00 0.00 0.00 60 1015.1
20260509144018 49 269 0.0 3.0 0.00 0.00 0.00 64 1015.1
20260509143517 49 269 2.0 3.0 0.00 0.00 0.00 64 1015.0
20260509143017 49 282 1.0 4.0 0.00 0.00 0.00 64 1015.1
20260509142520 49 304 1.0 4.0 0.00 0.00 0.00 65 1015.0
20260509142016 48 9 1.0 4.0 0.00 0.00 0.00 65 1014.9
20260509141518 48 5 0.0 4.0 0.00 0.00 0.00 65 1014.9
20260509141014 48 38 1.0 4.0 0.00 0.00 0.00 65 1014.9
20260509140515 48 38 0.0 4.0 0.00 0.00 0.00 66 1014.8
20260509140015 47 23 2.0 4.0 0.00 0.00 0.00 67 1014.8
20260509135514 47 5 1.0 4.0 0.00 0.00 0.00 67 1014.8
20260509135014 47 30 1.0 4.0 0.00 0.00 0.00 68 1014.7
20260509134012 46 50 3.0 5.0 0.00 0.00 0.00 70 1014.5
20260509133512 46 5 3.0 5.0 0.00 0.00 0.00 71 1014.5
20260509133012 45 42 3.0 5.0 0.00 0.00 0.00 72 1014.4
20260509132512 45 19 2.0 5.0 0.00 0.00 0.00 72 1014.4
20260509132012 45 32 1.0 5.0 0.00 0.00 0.00 73 1014.4
20260509131514 44 33 1.0 5.0 0.00 0.00 0.00 74 1014.3
20260509131010 44 49 2.0 5.0 0.00 0.00 0.00 74 1014.3
20260509130511 44 13 3.0 5.0 0.00 0.00 0.00 75 1014.3
20260509130024 43 5 3.0 5.0 0.00 0.00 0.00 76 1014.2
20260509125509 43 22 2.0 4.0 0.00 0.00 0.00 77 1014.1
20260509125009 42 15 0.0 2.0 0.00 0.00 0.00 79 1014.1
20260509124010 41 15 0.0 1.0 0.00 0.00 0.00 80 1013.9
20260509123509 40 15 0.0 1.0 0.00 0.00 0.00 80 1013.9
20260509123009 40 15 0.0 1.0 0.00 0.00 0.00 81 1013.9
20260509122509 40 13 0.0 0.0 0.00 0.00 0.00 80 1013.7
20260509122008 39 13 0.0 0.0 0.00 0.00 0.00 81 1013.5
20260509121511 39 13 0.0 0.0 0.00 0.00 0.00 81 1013.5
20260509121007 39 13 0.0 0.0 0.00 0.00 0.00 82 1013.5
20260509120507 38 13 0.0 0.0 0.00 0.00 0.00 82 1013.3
20260509120007 38 13 0.0 0.0 0.00 0.00 0.00 83 1013.3
20260509115505 38 13 0.0 0.0 0.00 0.00 0.00 83 1013.1
20260509115005 37 14 0.0 0.0 0.00 0.00 0.00 83 1013.2
20260509114100 37 14 0.0 0.0 0.00 0.00 0.00 82 1012.9
20260509113603 37 14 0.0 0.0 0.00 0.00 0.00 81 1012.9
20260509113101 38 14 0.0 0.0 0.00 0.00 0.00 81 1012.9
20260509112557 38 14 0.0 0.0 0.00 0.00 0.00 81 1012.8
20260509112056 38 16 0.0 0.0 0.00 0.00 0.00 81 1012.7
20260509111556 39 16 0.0 0.0 0.00 0.00 0.00 82 1012.7
20260509111054 39 17 0.0 0.0 0.00 0.00 0.00 82 1012.5
20260509110558 39 17 0.0 2.0 0.00 0.00 0.00 82 1012.4
20260509110056 39 17 0.0 2.0 0.00 0.00 0.00 82 1012.4
20260509105552 39 16 0.0 1.0 0.00 0.00 0.00 81 1012.3
20260509105051 39 16 0.0 1.0 0.00 0.00 0.00 81 1012.1
20260509104652 39 16 0.0 3.0 0.00 0.00 0.00 81 1012.1
20260509104051 40 16 0.0 4.0 0.00 0.00 0.00 81 1012.0
20260509103551 40 23 2.0 5.0 0.00 0.00 0.00 81 1011.9
20260509103100 40 24 2.0 5.0 0.00 0.00 0.00 81 1011.8
20260509102550 40 33 2.0 5.0 0.00 0.00 0.00 81 1011.6
20260509102050 40 36 3.0 5.0 0.00 0.00 0.00 81 1011.6
20260509101601 40 28 2.0 4.0 0.00 0.00 0.00 81 1011.6
20260509101047 40 28 2.0 4.0 0.00 0.00 0.00 81 1011.5
20260509100547 41 28 2.0 4.0 0.00 0.00 0.00 81 1011.4
20260509100046 41 28 1.0 3.0 0.00 0.00 0.00 80 1011.3
20260509095545 41 28 1.0 4.0 0.00 0.00 0.00 80 1011.2
20260509095044 42 28 2.0 5.0 0.00 0.00 0.00 80 1011.2
20260509094645 42 26 2.0 5.0 0.00 0.00 0.00 80 1011.1
20260509094043 42 28 2.0 4.0 0.00 0.00 0.00 80 1011.1
20260509093540 42 20 2.0 3.0 0.00 0.00 0.00 80 1011.0
20260509093040 42 20 2.0 3.0 0.00 0.00 0.00 81 1011.0
20260509092539 42 20 2.0 3.0 0.00 0.00 0.00 81 1010.9
20260509092038 42 20 2.0 3.0 0.00 0.00 0.00 81 1010.7
20260509091537 42 20 0.0 2.0 0.00 0.00 0.00 80 1010.9
20260509091039 42 20 0.0 1.0 0.00 0.00 0.00 80 1010.5
20260509090538 42 20 0.0 2.0 0.00 0.00 0.00 80 1010.3
20260509090040 42 20 0.0 2.0 0.00 0.00 0.00 81 1010.3
20260509085533 42 20 0.0 1.0 0.00 0.00 0.00 80 1010.3
20260509085032 42 20 0.0 1.0 0.00 0.00 0.00 79 1010.2
20260509084632 42 20 0.0 2.0 0.00 0.00 0.00 79 1010.1
20260509084037 42 20 0.0 2.0 0.00 0.00 0.00 80 1010.0
20260509083537 42 20 1.0 3.0 0.00 0.00 0.00 79 1009.8
20260509083050 43 20 1.0 3.0 0.00 0.00 0.00 80 1009.6
20260509082534 43 20 1.0 3.0 0.00 0.00 0.00 79 1009.5
20260509082033 43 20 1.0 3.0 0.00 0.00 0.00 79 1009.6
20260509081532 44 20 1.0 3.0 0.00 0.00 0.00 78 1009.5
20260509081030 44 21 1.0 3.0 0.00 0.00 0.00 78 1009.4
20260509080528 45 21 2.0 4.0 0.00 0.00 0.00 78 1009.4
20260509080030 45 24 2.0 4.0 0.00 0.00 0.00 78 1009.4
20260509075531 45 45 1.0 3.0 0.00 0.00 0.00 78 1009.4
20260509075026 45 45 0.0 2.0 0.00 0.00 0.00 77 1009.4
20260509074625 46 45 0.0 0.0 0.00 0.00 0.00 77 1009.2
20260509074024 46 45 0.0 0.0 0.00 0.00 0.00 77 1009.3
20260509073524 46 45 0.0 2.0 0.00 0.00 0.00 76 1009.2
20260509073030 47 45 0.0 3.0 0.00 0.00 0.00 77 1009.2
20260509072524 47 45 1.0 5.0 0.00 0.00 0.00 77 1009.0
20260509072022 47 45 2.0 6.0 0.00 0.00 0.00 78 1008.9
20260509071530 46 44 3.0 6.0 0.00 0.00 0.00 78 1009.0
20260509071021 46 103 2.0 3.0 0.00 0.00 0.00 75 1008.9
20260509070524 46 103 2.0 3.0 0.00 0.00 0.00 73 1008.9
20260509070018 47 103 1.0 4.0 0.00 0.00 0.00 72 1008.7
20260509065517 47 103 2.0 4.0 0.00 0.00 0.00 72 1008.5
20260509065015 48 103 0.0 0.0 0.00 0.00 0.00 69 1008.5
20260509064615 49 103 0.0 0.0 0.00 0.00 0.00 70 1008.4
20260509064011 49 103 0.0 0.0 0.00 0.00 0.00 70 1008.4
20260509063511 50 103 0.0 0.0 0.00 0.00 0.00 69 1008.4
20260509063018 50 103 0.0 0.0 0.00 0.00 0.00 68 1008.3
20260509062509 51 103 0.0 0.0 0.00 0.00 0.00 67 1008.2
20260509062007 51 103 0.0 1.0 0.00 0.00 0.00 67 1008.2
20260509061508 51 103 0.0 1.0 0.00 0.00 0.00 67 1007.9
20260509061012 52 103 0.0 2.0 0.00 0.00 0.00 66 1007.8
20260509060508 52 103 1.0 3.0 0.00 0.00 0.00 66 1007.8
20260509060008 53 103 1.0 6.0 0.00 0.00 0.00 65 1007.7
20260509055507 53 103 1.0 7.0 0.00 0.00 0.00 64 1007.6
20260509055007 53 111 3.0 7.0 0.00 0.00 0.00 64 1007.7
20260509054618 53 103 3.0 6.0 0.00 0.00 0.00 62 1007.8
20260509054006 53 103 3.0 6.0 0.00 0.00 0.00 62 1007.7
20260509053506 53 103 1.0 4.0 0.00 0.00 0.00 62 1007.7
20260509053006 53 103 1.0 6.0 0.00 0.00 0.00 62 1007.6
20260509052506 54 103 2.0 6.0 0.00 0.00 0.00 61 1007.6
20260509052005 54 103 0.0 4.0 0.00 0.00 0.00 61 1007.5
20260509051505 54 103 1.0 6.0 0.00 0.00 0.00 61 1007.6
20260509051005 55 109 2.0 6.0 0.00 0.00 0.00 60 1007.6
20260509050505 55 74 1.0 6.0 0.00 0.00 0.00 59 1007.5
20260509050005 55 88 2.0 14.0 0.00 0.00 0.00 59 1007.5
20260509045508 55 63 5.0 14.0 0.00 0.00 0.00 58 1007.4
20260509045004 55 63 8.0 17.0 0.00 0.00 0.00 59 1007.5
20260509044704 56 61 8.0 14.0 0.00 0.00 0.00 59 1007.5
20260509044008 56 73 8.0 14.0 0.00 0.00 0.00 59 1007.3
20260509043506 56 67 4.0 15.0 0.00 0.00 0.00 58 1006.9
20260509043005 56 67 7.0 15.0 0.00 0.00 0.00 57 1007.0
20260509042505 56 57 8.0 15.0 0.00 0.00 0.00 58 1007.0
20260509042008 56 59 7.0 12.0 0.00 0.00 0.00 59 1006.9
20260509041505 56 35 4.0 10.0 0.00 0.00 0.00 59 1006.7
20260509041005 56 55 5.0 9.0 0.00 0.00 0.00 59 1006.6
20260509040505 56 36 4.0 9.0 0.00 0.00 0.00 58 1006.7
20260509040008 56 31 3.0 9.0 0.00 0.00 0.00 58 1006.6
20260509035505 56 29 4.0 8.0 0.00 0.00 0.00 58 1006.7
20260509035005 56 31 3.0 8.0 0.00 0.00 0.00 58 1006.6
20260509034605 56 28 3.0 6.0 0.00 0.00 0.00 58 1006.3
20260509034003 56 30 3.0 8.0 0.00 0.00 0.00 57 1006.1
20260509033503 57 43 4.0 8.0 0.00 0.00 0.00 57 1006.0
20260509033002 57 37 4.0 7.0 0.00 0.00 0.00 57 1006.0
20260509032505 57 28 3.0 10.0 0.00 0.00 0.00 56 1006.2
20260509032002 57 42 5.0 10.0 0.00 0.00 0.00 57 1006.5
20260509031506 57 30 3.0 6.0 0.00 0.00 0.00 56 1006.6
20260509031001 57 32 3.0 6.0 0.00 0.00 0.00 56 1006.6
20260509030503 57 34 3.0 6.0 0.00 0.00 0.00 56 1006.5
20260509030001 57 45 3.0 6.0 0.00 0.00 0.00 56 1006.3
20260509025502 57 24 2.0 6.0 0.00 0.00 0.00 55 1006.1
20260509025002 58 38 3.0 8.0 0.00 0.00 0.00 54 1006.0
20260509024603 59 28 4.0 12.0 0.00 0.00 0.00 53 1005.8
20260509024002 59 17 4.0 12.0 0.00 0.00 0.00 53 1005.7
20260509023502 59 34 5.0 16.0 0.00 0.00 0.00 53 1005.5
20260509023002 59 19 5.0 16.0 0.00 0.00 0.00 52 1005.5
20260509022501 59 28 6.0 11.0 0.00 0.00 0.00 52 1005.4
20260509022001 60 26 6.0 11.0 0.00 0.00 0.00 51 1005.1
20260509021501 60 27 4.0 15.0 0.00 0.00 0.00 50 1005.3
20260509021000 61 46 5.0 16.0 0.00 0.00 0.00 50 1005.3
20260509020600 61 9 8.0 16.0 0.00 0.00 0.00 49 1005.1
20260509020108 61 9 7.0 15.0 0.00 0.00 0.00 48 1005.1
20260509015604 62 22 8.0 15.0 0.00 0.00 0.00 48 1004.8
20260509015101 62 32 6.0 13.0 0.00 0.00 0.00 49 1005.0
20260509014600 62 13 5.0 12.0 0.00 0.00 0.00 47 1005.2
20260509013559 64 5 4.0 9.0 0.00 0.00 0.00 40 1004.5
20260509013102 64 12 3.0 7.0 0.00 0.00 0.00 40 1004.2
20260509012558 64 22 2.0 8.0 0.00 0.00 0.00 39 1004.0
20260509012059 65 5 3.0 8.0 0.00 0.00 0.00 39 1003.9
20260509011600 65 28 3.0 11.0 0.00 0.00 0.00 38 1003.7
20260509011058 66 20 3.0 17.0 0.00 0.00 0.00 37 1003.7
20260509010558 67 43 3.0 6.0 0.00 0.00 0.00 32 1003.8
20260509010058 68 11 1.0 8.0 0.00 0.00 0.00 32 1003.6
20260509005558 69 360 4.0 14.0 0.00 0.00 0.00 32 1003.8
20260509005057 69 5 6.0 14.0 0.00 0.00 0.00 32 1003.7
20260509004601 70 360 3.0 17.0 0.00 0.00 0.00 28 1004.1
20260509003557 71 351 6.0 17.0 0.00 0.00 0.00 27 1004.1
20260509003059 71 308 4.0 9.0 0.00 0.00 0.00 26 1004.0
20260509002556 71 269 4.0 10.0 0.00 0.00 0.00 27 1003.8
20260509002057 71 283 1.0 10.0 0.00 0.00 0.00 27 1004.0
20260509001556 71 275 3.0 10.0 0.00 0.00 0.00 26 1003.9
20260509001055 72 281 4.0 11.0 0.00 0.00 0.00 26 1003.9
20260509000555 72 290 5.0 13.0 0.00 0.00 0.00 26 1003.9
20260509000100 73 323 7.0 16.0 0.00 0.00 0.00 25 1004.0
20260508235555 74 272 8.0 16.0 0.00 0.00 0.00 24 1004.1
20260508235055 74 263 7.0 14.0 0.00 0.00 0.00 25 1004.2
20260508234556 72 238 4.0 10.0 0.00 0.00 0.00 27 1004.3
20260508233555 72 265 5.0 12.0 0.00 0.00 0.00 26 1004.5
20260508233053 72 249 5.0 12.0 0.00 0.00 0.00 26 1004.6
20260508232554 73 266 6.0 13.0 0.00 0.00 0.00 26 1004.7
20260508232052 74 268 8.0 13.0 0.00 0.00 0.00 25 1004.8
20260508231551 72 330 4.0 11.0 0.00 0.00 0.00 28 1004.9
20260508231051 71 318 5.0 12.0 0.00 0.00 0.00 27 1004.9
20260508230554 71 308 4.0 12.0 0.00 0.00 0.00 27 1005.0
20260508230050 72 317 5.0 16.0 0.00 0.00 0.00 27 1005.0
20260508225549 72 315 6.0 16.0 0.00 0.00 0.00 27 1005.2
20260508225051 72 348 5.0 17.0 0.00 0.00 0.00 26 1005.3
20260508224611 73 309 5.0 15.0 0.00 0.00 0.00 25 1005.4
20260508223551 73 248 7.0 15.0 0.00 0.00 0.00 25 1005.4
20260508223053 74 262 6.0 13.0 0.00 0.00 0.00 25 1005.6
20260508222551 73 286 3.0 16.0 0.00 0.00 0.00 26 1005.7
20260508222049 73 262 6.0 16.0 0.00 0.00 0.00 25 1005.7
20260508221549 73 327 5.0 13.0 0.00 0.00 0.00 25 1005.6
20260508221048 73 323 7.0 13.0 0.00 0.00 0.00 24 1005.7
20260508220548 74 295 7.0 11.0 0.00 0.00 0.00 24 1005.7
20260508220052 74 334 7.0 16.0 0.00 0.00 0.00 24 1005.7
20260508215547 74 263 9.0 16.0 0.00 0.00 0.00 23 1006.0
20260508215048 75 275 7.0 18.0 0.00 0.00 0.00 22 1005.8